sat.trackr.live / text

‹ back to catalog

KUIPER-00603

NORAD 69287 · 2026-118W

PAYLOAD ACTIVE UNKNOWN

§ Identity

Operator
Country
US
Launch date
2026-05-29
Launch site
AFETR
Launch vehicle
Mass (kg)
RCS (m²)

External: N2YO · Heavens-Above · Gunter

§ Orbital elements

Epoch: 2026-09-19T12:24:29.374560Z

Period
97.30 min
Inclination
51.9060°
Eccentricity
0.0000335
Mean motion
14.79935416 rev/d
Perigee alt
629.3 km
Apogee alt
629.8 km
Semi-major
7,007.7 km
B*
2.8677e-4
RAAN
338.5469°
Arg perigee
87.6546°
Mean anomaly
272.4455°
Rev number
1,819

§ Raw data

KUIPER-006031 69287U 26118W   26262.51700665  .00001966  00000+0  28677-3 0  99922 69287  51.9060 338.5469 0000335  87.6546 272.4455 14.79935416 18197

JSON: /api/v1/satellites/69287 · /tle

For live sub-satellite position, see the globe view (requires WebGL).

§ Visibility from observer

Set your observer location to see the next 7 days of passes ≥ 10°. The values pass through the URL so the page stays shareable.

No JS? Fill the form by hand. The geolocation button needs JavaScript.